Racine, WI

12:32 AM CST on November 20, 2017 (GMT -0600)
Batten

Weather History for KRAC - October, 2013

Change the Weather History Date:

Monday, October 28, 2013

  Actual Average Record
Temperature  
Mean Temperature 44 °F -  
Max Temperature 46 °F 55 °F 73 °F (1984)
Min Temperature 42 °F 39 °F 24 °F (1969)
Degree Days  
Heating Degree Days 21    
Moisture  
Dew Point 36 °F    
Average Humidity 72    
Maximum Humidity 82    
Minimum Humidity 60    
Precipitation  
Precipitation 0.00 in - - ()
Sea Level Pressure  
Sea Level Pressure 30.29 in    
Wind  
Wind Speed 12 mph (NNE)    
Max Wind Speed 17 mph    
Max Gust Speed 24 mph    
Visibility 10 miles    
Events      
Averages and records for this station are not official NWS values.
T = Trace of Precipitation, MM = Missing Value Source: NWS Daily Summary

Daily Weather History Graph

Daily Weather History Graph

Search for Another Location

Airport or City:

Trip Planner

Search our weather history database for the weather conditions in past years. The results will help you decide how hot, cold, wet, or windy it might be!

Date:

Astronomy

Oct. 28, 2013 Rise Set
Actual Time 7:20 AM CDT 5:48 PM CDT
Civil Twilight 6:51 AM CDT 6:17 PM CDT
Nautical Twilight 6:18 AM CDT 6:51 PM CDT
Astronomical Twilight 5:45 AM CDT 7:23 PM CDT
Moon 1:05 AM CDT (10/28) 2:38 PM CDT (10/28)
Length of Visible Light 11h 26m
Length of Day
10h 28m
Waning Crescent, 34% of the Moon is Illuminated
Oct 28
Waning Crescent
Nov 3
New
Nov 9
First Quarter
Nov 17
Full
Nov 25
Last Quarter

Hourly Weather History & Observations

Time (CDT) Temp. Windchill Dew Point Humidity Pressure Visibility Wind Dir Wind Speed Gust Speed Precip Events Conditions
12:53 AM 42.1 °F 39.2 °F 30.0 °F 62% 30.07 in 10.0 mi West 4.6 mph - N/A   Mostly Cloudy
1:53 AM 43.0 °F 39.5 °F 30.0 °F 60% 30.08 in 10.0 mi West 5.8 mph - N/A   Overcast
2:53 AM 43.0 °F 36.8 °F 32.0 °F 65% 30.12 in 10.0 mi North 11.5 mph - N/A   Clear
3:53 AM 45.0 °F 39.3 °F 39.9 °F 82% 30.14 in 10.0 mi NNE 11.5 mph - N/A   Clear
4:27 AM 46.4 °F 40.7 °F 41.0 °F 81% 30.15 in 10.0 mi NNE 12.7 mph - N/A   Mostly Cloudy
4:53 AM 46.9 °F - 41.0 °F 80% 30.18 in 10.0 mi NNE 17.3 mph 24.2 mph N/A   Overcast
5:53 AM 46.0 °F 39.9 °F 39.9 °F 79% 30.20 in 10.0 mi NNE 13.8 mph 20.7 mph N/A   Overcast
6:50 AM 46.4 °F 40.1 °F 39.2 °F 76% 30.21 in 10.0 mi NNE 15.0 mph 23.0 mph N/A   Overcast
6:53 AM 46.0 °F 39.6 °F 39.0 °F 76% 30.23 in 10.0 mi NNE 15.0 mph 23.0 mph N/A   Overcast
7:24 AM 46.4 °F 40.4 °F 37.4 °F 71% 30.23 in 10.0 mi NNE 13.8 mph 23.0 mph N/A   Overcast
7:53 AM 46.0 °F 39.6 °F 39.0 °F 76% 30.26 in 10.0 mi NE 15.0 mph 24.2 mph N/A   Overcast
8:34 AM 46.4 °F 40.4 °F 39.2 °F 76% 30.27 in 10.0 mi NE 13.8 mph - N/A   Overcast
8:53 AM 46.0 °F 39.3 °F 39.0 °F 76% 30.29 in 10.0 mi NE 16.1 mph 23.0 mph N/A   Overcast
9:53 AM 46.0 °F 39.6 °F 37.9 °F 73% 30.32 in 10.0 mi NE 15.0 mph - N/A   Overcast
10:53 AM 46.0 °F 39.6 °F 37.9 °F 73% 30.35 in 10.0 mi NE 15.0 mph - N/A   Overcast
11:18 AM 46.4 °F 40.1 °F 37.4 °F 71% 30.33 in 10.0 mi NE 15.0 mph - N/A   Overcast
11:53 AM 46.0 °F 39.9 °F 37.0 °F 71% 30.36 in 10.0 mi NE 13.8 mph 20.7 mph N/A   Overcast
12:12 PM 46.4 °F 39.8 °F 37.4 °F 71% 30.34 in 10.0 mi NE 16.1 mph - N/A   Overcast
12:53 PM 46.0 °F 40.2 °F 37.0 °F 71% 30.35 in 10.0 mi NE 12.7 mph 20.7 mph N/A   Overcast
1:53 PM 45.0 °F 37.9 °F 37.0 °F 74% 30.35 in 10.0 mi NNE 16.1 mph - N/A   Overcast
2:53 PM 45.0 °F 39.3 °F 35.1 °F 68% 30.35 in 10.0 mi NNE 11.5 mph - N/A   Overcast
3:53 PM 45.0 °F 38.2 °F 35.1 °F 68% 30.36 in 10.0 mi NNE 15.0 mph - N/A   Overcast
4:53 PM 45.0 °F 38.5 °F 35.1 °F 68% 30.37 in 10.0 mi NNE 13.8 mph 20.7 mph N/A   Overcast
5:53 PM 44.1 °F 36.8 °F 33.1 °F 65% 30.38 in 10.0 mi NNE 16.1 mph 20.7 mph N/A   Overcast
6:32 PM 44.6 °F 38.1 °F 32.0 °F 61% 30.37 in 10.0 mi North 13.8 mph - N/A   Overcast
6:53 PM 43.0 °F 37.2 °F 33.1 °F 68% 30.39 in 10.0 mi North 10.4 mph - N/A   Overcast
7:53 PM 43.0 °F 36.8 °F 33.1 °F 68% 30.41 in 10.0 mi North 11.5 mph - N/A   Overcast
8:53 PM 43.0 °F 36.8 °F 34.0 °F 71% 30.42 in 10.0 mi North 11.5 mph - N/A   Overcast
9:53 PM 43.0 °F 37.2 °F 35.1 °F 74% 30.43 in 10.0 mi North 10.4 mph - N/A   Overcast
10:53 PM 43.0 °F 36.8 °F 35.1 °F 74% 30.42 in 10.0 mi NNE 11.5 mph - N/A   Overcast
11:53 PM 43.0 °F 38.2 °F 35.1 °F 74% 30.41 in 10.0 mi NNE 8.1 mph - N/A   Overcast